Wind_Speed
70 67 66 66 66 66 65 59 55 62 66 62 59 59 61 63 64 63 60 60 59 58 60 58 56 56 57 57 55 53 53 50 49 50 50 47 45 43 42 42 43 41 39 38 37 36 34 31 29 30 32 33 32 33 35 34 33 34 35 33 31 32
64 64 63 62 62 62 60 57 57 61 62 59 53 50 51 51 52 53 51 50 50 50 53 54 56 59 59 60 56 51 50 49 49 50 49 44 40 42 44 47 45 42 40 40 39 37 34 31 29 30 32 33 34 35 36 36 37 37 36 34 30 30
62 61 60 58 59 59 57 55 56 57 58 55 47 45 50 51 49 50 47 47 52 54 55 58 61 61 61 62 57 52 51 52 51 50 50 47 44 43 45 46 44 42 43 43 41 37 35 33 31 31 32 34 36 37 38 38 39 39 37 33 29 28
61 59 57 56 58 58 55 53 54 56 55 52 49 50 55 56 55 56 54 54 58 60 60 61 62 62 63 62 59 56 56 57 54 51 50 48 45 44 45 46 46 46 45 43 41 39 38 36 34 34 34 36 39 39 40 41 42 40 37 33 30 29
60 59 59 59 58 58 56 55 57 58 57 55 54 54 56 57 56 55 54 54 58 62 62 60 60 63 63 61 60 59 59 56 52 51 49 44 42 42 45 46 43 44 43 40 40 41 40 40 39 38 38 39 41 42 43 43 42 39 38 34 32 32
62 62 61 59 59 60 59 60 61 60 59 59 58 57 57 55 52 49 49 54 60 62 61 59 59 60 60 61 63 62 58 52 47 48 45 43 43 43 45 46 42 41 43 41 41 43 44 44 42 42 41 39 41 44 45 44 42 40 38 35 35 35
64 64 63 62 61 59 58 62 64 61 60 61 60 60 59 56 51 50 53 58 62 63 62 61 60 60 62 66 68 66 61 53 48 47 45 44 44 44 46 46 45 46 48 48 49 49 47 47 45 43 41 38 40 43 44 44 42 40 37 35 36 36
67 68 69 66 61 56 56 65 69 65 63 65 64 63 62 60 57 57 59 61 64 65 66 65 65 67 69 70 69 66 62 57 53 50 48 47 45 47 49 49 50 52 52 52 53 51 49 49 47 44 40 38 38 40 43 44 41 39 37 36 36 36
72 75 75 70 67 64 62 67 71 70 69 69 68 66 63 61 61 61 63 67 71 72 72 71 71 72 72 72 69 63 59 59 56 53 53 53 50 50 51 49 50 51 52 52 52 52 51 50 48 44 41 39 39 41 43 43 42 39 37 37 36 36
77 78 76 74 74 72 67 63 65 68 70 70 66 63 62 62 65 68 72 77 78 75 74 75 75 75 76 74 69 62 58 58 57 56 57 56 53 50 49 48 48 49 51 53 53 54 55 52 48 45 42 41 41 42 43 43 42 39 37 37 36 36
79 78 78 78 77 75 72 68 68 70 73 71 64 64 67 71 76 78 79 79 77 75 75 77 77 77 76 73 67 60 58 58 56 55 55 56 53 50 49 49 50 52 53 54 55 57 56 52 47 45 43 41 42 44 45 44 42 40 38 38 36 36
78 79 79 78 76 75 73 72 73 74 76 75 73 75 79 80 81 79 76 74 72 70 70 71 71 71 70 69 65 59 59 61 59 57 56 56 54 52 52 54 56 57 56 58 60 58 55 50 46 45 44 44 46 46 46 44 42 40 39 38 36 35
74 76 76 74 73 72 71 70 71 72 72 74 76 78 78 77 75 73 69 65 61 57 57 60 61 61 62 63 64 63 65 67 67 65 62 58 57 55 54 56 59 59 58 59 60 59 54 48 45 45 48 49 47 46 44 42 41 41 39 38 36 36
70 70 69 69 67 67 67 67 66 66 66 67 68 69 68 67 65 63 59 57 55 54 53 52 50 52 54 55 59 62 63 64 64 63 61 59 56 53 51 53 55 54 57 58 58 58 54 50 48 48 50 50 47 44 41 40 40 39 38 37 36 37
62 61 61 62 62 62 62 61 60 60 59 58 58 57 56 54 52 51 51 51 52 53 52 48 46 49 51 50 51 55 58 58 57 56 56 56 54 52 52 53 55 56 59 58 57 56 54 52 51 50 51 49 47 44 40 40 38 36 35 35 36 37
55 57 57 56 56 55 54 54 52 50 48 46 44 43 42 42 41 41 43 43 44 45 46 49 51 52 51 48 46 47 52 54 54 54 55 55 55 55 55 56 59 60 60 59 57 55 55 55 53 52 52 51 47 43 41 39 35 34 34 35 36 36
52 52 50 48 46 45 45 44 43 40 36 34 33 34 34 34 34 34 35 36 37 39 43 48 51 53 55 53 48 46 48 51 52 55 58 57 56 56 58 60 60 59 58 58 58 57 57 57 55 52 51 50 45 42 39 36 34 34 35 36 35 33
45 43 41 40 40 39 39 38 36 34 31 29 29 30 31 31 31 30 30 33 35 37 41 45 45 47 51 51 47 46 50 53 54 56 60 60 58 58 59 59 59 59 60 60 59 59 58 57 54 49 48 48 44 41 38 34 34 36 36 37 35 33
39 38 38 39 39 38 37 36 35 34 33 32 31 31 31 30 29 28 28 29 33 35 37 42 44 45 48 47 46 46 49 53 56 58 62 65 66 64 61 60 60 61 63 64 62 60 59 57 53 48 47 47 45 42 39 35 35 37 37 38 37 33
37 38 39 40 39 39 38 37 37 37 37 37 36 35 34 32 30 29 28 28 30 33 34 37 41 45 48 51 52 53 54 56 59 60 60 62 64 64 62 61 61 60 61 62 62 60 60 57 52 48 48 48 46 44 42 38 37 38 39 39 39 35
38 40 41 43 43 43 42 40 39 40 41 41 40 39 38 36 34 32 30 29 29 31 32 33 35 39 44 49 53 55 55 57 59 59 56 55 55 57 58 59 58 57 57 59 59 58 60 58 51 49 50 49 47 45 43 40 38 39 40 40 40 37
42 43 45 46 47 48 46 44 42 42 43 44 43 42 41 40 38 36 33 31 31 31 31 31 32 34 37 41 45 48 49 50 52 52 52 53 53 54 55 57 58 58 58 58 60 59 59 57 50 47 49 50 48 46 44 41 39 39 40 41 40 35
46 47 49 50 51 52 51 48 46 45 44 44 45 44 43 42 41 38 35 33 32 31 31 31 31 30 30 32 35 39 41 41 42 44 46 49 50 51 52 53 54 55 55 56 58 59 56 52 46 46 46 46 47 47 44 42 39 39 41 42 39 35
48 50 52 53 54 55 54 51 48 47 45 45 45 44 43 42 41 39 37 35 33 31 31 30 30 29 29 29 29 30 32 33 34 35 37 38 40 42 43 45 46 48 50 51 52 52 49 46 46 47 44 42 43 44 44 44 41 38 40 42 39 35
46 49 51 52 54 55 55 52 50 49 48 47 46 44 42 40 39 39 38 37 34 32 31 30 30 29 28 28 27 27 28 29 29 30 30 31 33 34 36 37 39 40 43 45 46 44 43 44 47 48 44 41 41 41 42 43 42 39 40 42 40 36
47 49 50 50 51 53 54 53 51 50 49 48 46 44 42 40 38 38 38 37 36 34 31 30 30 29 28 27 27 27 27 27 27 28 28 29 29 31 32 33 33 35 37 41 44 44 45 46 48 49 48 43 39 40 42 42 42 41 40 42 41 36
50 51 51 51 51 53 55 55 54 52 50 48 46 44 41 39 38 38 38 37 37 35 33 31 30 29 29 28 27 27 27 26 26 26 27 28 29 30 31 31 32 33 35 38 41 44 46 49 50 50 51 49 43 41 42 42 42 43 41 42 41 38
52 53 53 53 53 54 56 58 57 54 51 48 46 43 40 38 38 39 39 38 38 37 34 33 31 30 29 28 27 27 27 27 26 26 26 26 27 29 30 31 32 33 35 36 38 40 42 46 51 51 50 51 48 43 43 42 43 45 44 43 43 40
55 55 55 55 55 56 58 59 59 57 52 48 45 42 39 37 37 38 38 39 38 37 36 35 34 32 30 28 28 27 27 27 27 26 26 25 26 27 28 29 30 31 33 35 37 39 40 41 47 52 52 52 50 46 43 42 42 44 46 44 43 42
57 58 57 56 56 57 57 57 57 57 54 48 44 41 39 37 36 36 37 37 37 37 37 37 35 34 32 30 29 28 27 27 27 27 26 25 25 25 25 26 27 28 30 32 35 38 40 40 42 46 50 51 52 49 45 44 43 44 45 44 43 42
60 61 59 58 57 56 54 52 51 53 52 47 43 43 41 40 39 39 38 37 36 37 37 37 36 35 35 33 31 30 28 28 28 28 27 26 25 24 24 25 25 26 27 29 31 34 36 39 41 43 45 48 50 49 46 46 46 45 45 45 45 44
61 61 60 58 54 50 48 47 47 50 51 48 45 46 46 45 45 45 43 41 39 39 39 38 37 37 37 36 35 33 31 29 29 29 29 28 26 25 25 25 25 25 26 27 29 31 32 34 37 41 44 46 49 49 47 46 46 47 47 46 47 46
56 56 56 53 48 46 46 46 47 50 53 50 47 47 49 49 49 49 48 47 46 45 44 42 41 41 40 39 38 36 34 32 31 30 30 30 29 28 27 26 27 27 27 28 29 30 31 32 33 36 41 45 47 50 49 48 47 48 48 48 47 47
50 50 51 49 46 46 47 48 49 50 53 53 50 49 50 50 50 50 50 51 50 47 44 42 42 43 43 42 40 39 38 36 34 32 32 32 31 31 30 30 30 30 29 29 30 30 30 31 32 33 36 40 44 47 50 50 49 48 49 49 48 48
47 49 49 46 46 48 49 49 51 50 51 53 52 51 53 54 52 50 49 48 47 44 42 41 42 42 43 43 42 41 41 40 38 36 34 34 34 34 34 33 33 33 33 32 32 32 31 31 32 33 34 37 40 44 47 50 51 51 51 50 49 48
49 50 49 46 45 48 51 51 52 52 51 51 51 51 52 53 53 51 48 46 44 43 42 43 42 42 42 43 44 44 44 43 42 41 39 37 37 37 37 36 36 36 36 35 34 33 33 33 33 33 34 35 37 40 43 47 50 53 54 54 51 50
50 48 48 47 45 47 51 51 51 53 52 50 50 49 49 51 52 50 47 47 47 47 47 47 45 44 43 42 44 45 46 46 46 45 44 42 41 40 40 39 39 39 38 38 37 36 36 35 35 34 34 35 36 37 40 42 45 49 53 56 56 54
Wind_Direction
285 284 284 284 284 284 285 286 281 278 280 280 281 285 284 282 281 281 284 288 290 287 286 287 288 294 298 298 296 293 291 287 284 286 284 284 286 287 285 285 284 283 283 279 280 280 277 281 281 276 273 269 267 273 281 285 287 291 295 292 283 277
283 283 284 285 285 285 285 282 276 276 278 277 279 281 276 274 276 280 288 289 285 283 288 291 294 299 298 295 292 290 293 290 283 282 279 277 281 282 282 284 283 282 281 279 279 277 274 276 277 275 272 266 267 274 280 284 286 290 293 289 280 274
281 283 284 285 285 285 284 281 277 276 276 274 273 268 265 269 273 280 285 281 278 282 289 293 296 297 295 292 288 288 292 291 284 279 277 276 276 278 280 280 279 280 282 280 276 272 271 274 275 274 273 269 268 274 279 283 287 289 291 286 277 273
280 281 282 283 284 284 283 283 281 279 276 273 270 266 268 273 276 281 281 277 278 285 291 294 295 294 292 289 285 286 291 291 284 276 277 277 274 276 276 276 277 281 283 277 272 269 269 273 275 275 276 272 270 273 277 283 288 289 289 281 273 275
277 279 281 282 282 283 284 284 283 282 279 275 273 271 272 275 279 282 282 279 282 289 291 292 293 290 288 285 282 286 291 291 281 272 274 273 272 273 271 274 276 279 279 273 269 268 270 274 277 280 280 274 270 272 276 284 288 288 287 277 271 275
276 279 280 280 281 284 287 288 284 281 280 278 278 278 278 278 278 278 277 279 284 289 289 291 291 287 284 283 284 288 289 287 274 268 271 271 272 270 269 271 271 273 273 269 267 267 272 275 277 283 282 274 269 271 277 284 286 285 283 274 271 274
276 278 276 277 281 284 286 286 282 279 280 279 280 282 284 284 280 275 274 279 285 288 288 288 288 284 283 284 285 287 285 280 270 268 272 273 273 270 269 269 267 269 270 269 268 268 272 275 278 284 281 273 270 272 279 284 281 282 278 271 272 272
272 272 273 277 281 281 282 282 280 281 282 281 281 282 285 285 283 279 279 283 287 287 287 286 285 283 283 284 285 284 281 275 270 271 274 274 273 272 274 272 268 268 270 270 268 269 273 276 280 282 278 273 271 274 282 282 279 279 275 271 273 271
271 272 275 279 279 279 282 282 281 282 282 282 283 284 285 284 283 282 282 286 288 287 285 284 284 282 282 283 283 281 277 272 270 273 275 275 274 274 274 273 270 268 268 269 269 270 273 277 280 280 277 273 270 275 283 282 278 277 273 272 272 268
272 274 277 277 277 278 280 279 281 281 281 284 284 284 284 283 284 284 284 287 288 286 283 283 282 280 279 280 280 278 273 269 270 273 273 273 274 272 269 267 266 265 266 268 271 273 275 278 279 278 276 273 270 275 282 280 277 275 271 272 270 268
272 273 274 275 276 277 276 275 276 278 281 284 282 281 283 283 284 284 285 285 285 284 282 281 279 278 277 276 276 273 268 268 269 269 271 272 272 268 265 264 264 265 266 269 273 274 276 278 277 276 275 272 271 275 279 277 274 272 270 271 269 267
273 274 275 276 277 277 275 273 271 273 276 277 277 279 282 283 284 284 285 284 283 283 280 277 276 275 273 272 270 265 264 268 266 265 269 270 267 264 262 262 263 265 267 272 275 273 274 275 274 273 271 269 270 275 277 274 270 270 270 269 267 266
274 275 276 277 277 277 275 273 272 273 274 275 275 278 281 283 284 285 284 282 280 275 272 273 273 271 269 267 264 262 264 267 266 266 268 266 264 263 262 261 262 265 270 275 274 270 270 270 269 265 265 267 270 275 275 271 270 270 269 267 265 265
274 276 277 277 277 276 276 276 277 278 279 279 280 281 282 283 283 283 281 278 274 267 265 269 269 266 265 263 261 260 262 264 265 265 264 262 259 258 257 259 261 267 274 274 269 268 268 267 266 262 260 264 271 275 273 271 272 270 268 266 265 265
274 275 276 276 276 276 277 279 280 281 281 281 282 282 281 280 280 278 276 273 270 266 261 256 258 262 263 263 261 258 258 259 259 257 255 254 252 251 253 257 261 269 274 269 264 266 267 266 265 259 257 263 271 273 271 271 271 268 266 266 266 265
272 273 273 273 275 276 278 279 279 279 279 279 280 281 281 279 278 275 273 271 267 265 258 249 252 259 262 261 258 254 252 253 252 250 250 251 251 252 254 257 263 268 268 263 261 263 265 266 262 257 259 266 272 270 268 268 266 263 262 263 264 262
267 269 270 271 272 274 274 275 276 276 278 280 282 282 282 281 280 278 276 274 268 262 257 253 254 256 258 258 253 246 244 246 247 246 247 248 250 253 256 259 262 263 260 259 260 261 263 263 258 258 264 269 269 265 262 261 257 255 257 259 259 255
264 266 268 270 271 271 271 271 273 275 278 280 283 284 284 285 285 284 280 277 272 264 257 256 258 255 254 254 252 246 242 242 245 245 245 246 249 256 259 259 258 258 256 257 259 260 260 259 257 261 267 267 263 259 257 253 249 250 252 254 252 247
264 265 267 268 269 269 269 270 273 276 279 281 283 284 287 289 290 288 284 278 274 270 264 259 258 256 252 250 252 252 249 246 248 251 252 252 254 258 259 257 256 256 256 258 258 256 255 255 257 263 266 264 258 254 253 247 244 247 249 250 248 243
264 265 266 266 266 266 268 271 276 281 284 286 287 288 289 292 293 291 287 280 273 270 267 262 258 257 254 252 254 256 256 256 257 259 260 260 259 258 257 255 255 254 255 256 255 253 251 252 258 264 262 258 255 253 251 245 242 245 247 247 245 241
265 266 266 265 265 266 269 273 278 283 288 292 294 294 294 296 297 297 291 284 277 273 269 264 260 260 260 258 258 259 260 260 260 261 262 261 259 257 255 253 252 252 252 251 251 251 249 251 258 262 258 255 253 251 250 245 240 241 244 245 244 241
267 269 269 269 270 270 272 274 278 284 290 295 298 299 300 300 300 299 296 289 283 280 276 271 268 267 266 264 261 261 262 263 262 262 262 261 261 260 257 254 253 254 252 248 248 249 250 253 255 254 255 255 252 250 249 246 238 238 241 242 241 239
268 271 273 274 275 276 276 277 279 283 290 295 299 301 301 301 301 299 297 293 288 286 283 280 277 275 273 269 265 263 263 263 263 263 262 262 262 262 260 258 257 256 253 249 248 249 251 252 246 243 250 253 252 251 249 247 240 238 239 239 237 233
268 271 274 276 278 279 279 280 282 284 289 294 297 299 299 299 299 298 296 294 292 290 289 287 285 283 281 277 271 266 262 260 259 259 259 259 259 259 258 257 256 254 253 250 249 249 248 245 237 237 244 248 250 251 250 248 243 239 238 236 232 230
265 269 272 275 278 279 281 283 285 286 289 292 295 296 296 296 295 295 295 294 293 292 292 291 290 288 286 283 279 273 266 261 258 257 257 257 256 255 254 253 253 252 251 248 246 245 242 237 232 234 240 243 246 249 249 247 242 240 239 233 229 230
261 265 269 273 276 279 281 283 285 286 288 291 293 294 293 293 292 291 291 292 292 291 292 292 292 291 288 285 282 278 272 267 263 261 259 258 257 256 254 252 250 249 248 247 244 242 241 237 233 234 238 240 242 245 247 246 240 239 239 233 230 232
260 263 267 271 275 278 280 282 283 284 287 290 291 291 291 290 290 290 289 289 289 288 288 289 290 291 290 287 284 280 276 271 267 263 261 259 258 257 256 253 250 248 246 245 244 244 244 240 236 235 237 238 241 242 244 245 241 238 237 234 234 235
260 263 266 269 273 277 279 281 282 283 285 287 288 287 286 285 287 287 287 288 287 285 285 286 286 287 288 288 286 282 278 274 270 266 262 259 257 256 255 254 251 249 246 245 244 243 244 242 237 235 236 236 239 242 242 242 242 239 239 239 238 237
259 262 266 269 272 276 279 281 282 282 282 283 284 283 281 281 283 284 285 285 283 281 282 283 283 283 283 285 285 282 279 275 270 267 263 259 257 256 255 254 252 250 248 246 245 243 243 242 239 237 238 237 238 240 240 239 240 240 241 241 240 238
258 261 264 268 271 274 277 280 282 283 282 281 280 279 278 279 281 281 281 281 280 279 280 279 279 280 280 281 281 280 278 274 270 266 263 259 256 254 254 254 253 252 250 248 248 246 244 244 241 239 239 239 238 239 239 238 238 239 240 240 239 238
258 260 263 265 268 271 274 278 281 283 283 282 281 281 280 279 281 282 280 279 279 280 279 277 275 277 278 278 278 278 276 273 269 265 261 258 255 253 252 252 252 252 251 250 249 249 247 246 245 242 239 238 238 238 238 237 236 237 238 238 238 238
258 260 261 262 265 268 271 274 278 279 280 281 281 279 278 279 280 281 281 280 280 281 281 277 275 276 275 275 275 275 274 272 268 265 261 258 255 253 252 253 253 253 253 253 252 251 249 248 246 244 241 239 239 238 237 236 235 235 237 239 240 239
257 259 260 261 263 265 268 271 273 276 278 279 278 276 275 276 277 278 279 279 280 282 282 279 277 276 274 272 272 272 272 271 268 265 262 259 257 256 258 260 260 259 256 255 254 253 252 250 247 244 242 241 240 239 237 236 235 234 236 239 241 240
257 259 260 260 263 265 267 270 272 274 277 279 278 277 276 276 277 278 278 278 280 281 281 280 279 276 272 270 270 269 270 270 268 266 263 260 259 259 262 264 266 266 264 261 258 256 254 252 249 245 243 242 241 241 240 239 237 235 235 239 242 241
257 260 261 263 266 268 269 270 270 270 273 277 279 278 277 276 276 277 278 278 278 278 279 282 282 278 272 268 266 267 268 268 267 266 264 261 259 258 259 262 264 266 266 265 263 260 257 255 252 248 245 242 241 241 241 241 240 238 236 238 242 242
258 260 263 265 267 269 270 270 269 268 270 275 280 279 276 274 272 272 274 274 274 274 277 282 282 278 274 268 265 266 266 266 265 265 264 262 260 257 256 258 260 261 263 264 264 263 261 258 255 252 249 246 243 242 241 241 242 241 240 239 241 243
258 261 265 266 266 266 268 269 270 271 272 275 278 277 275 273 269 269 271 272 272 271 273 277 277 276 274 271 268 267 266 265 264 264 264 263 261 259 257 256 257 258 260 260 261 261 261 261 259 256 254 251 248 246 244 242 242 242 242 241 242 243
Height
10749 10747 10747 10747 10746 10747 10753 10762 10762 10752 10749 10751 10755 10758 10757 10753 10750 10749 10751 10751 10749 10747 10746 10750 10752 10753 10753 10751 10751 10750 10749 10749 10747 10745 10742 10740 10740 10741 10741 10742 10743 10745 10747 10748 10748 10749 10750 10750 10750 10750 10750 10749 10747 10743 10742 10744 10745 10746 10747 10748 10748 10748
10742 10741 10741 10741 10740 10743 10749 10754 10752 10748 10747 10749 10754 10755 10749 10746 10744 10744 10747 10745 10742 10742 10741 10744 10746 10747 10746 10744 10745 10745 10744 10744 10743 10741 10738 10736 10735 10736 10737 10737 10737 10739 10741 10743 10744 10744 10744 10745 10745 10745 10746 10745 10743 10740 10739 10740 10741 10741 10742 10743 10743 10743
10736 10736 10736 10736 10735 10737 10742 10745 10746 10744 10743 10745 10750 10746 10740 10741 10741 10741 10743 10737 10735 10739 10739 10739 10740 10741 10741 10738 10739 10741 10740 10739 10738 10736 10733 10732 10731 10732 10732 10732 10732 10733 10735 10737 10738 10739 10739 10740 10741 10741 10742 10741 10739 10736 10735 10735 10736 10736 10737 10738 10738 10739
10731 10731 10731 10732 10731 10731 10734 10738 10740 10738 10737 10739 10740 10737 10736 10738 10737 10736 10735 10731 10730 10733 10734 10734 10734 10735 10734 10732 10733 10736 10735 10732 10732 10731 10729 10727 10726 10727 10727 10727 10727 10728 10729 10730 10732 10734 10734 10735 10736 10737 10738 10737 10735 10732 10730 10731 10732 10732 10732 10732 10733 10734
10726 10726 10726 10725 10725 10726 10729 10732 10731 10729 10730 10732 10732 10733 10734 10734 10732 10729 10727 10726 10726 10726 10727 10728 10728 10727 10726 10724 10725 10729 10730 10727 10725 10725 10723 10722 10721 10721 10722 10722 10722 10723 10724 10725 10726 10728 10729 10730 10731 10732 10733 10733 10731 10727 10725 10726 10727 10727 10727 10727 10728 10729
10721 10721 10719 10717 10718 10722 10726 10725 10720 10719 10722 10725 10727 10730 10730 10730 10728 10724 10722 10722 10721 10721 10721 10721 10722 10722 10719 10716 10716 10720 10723 10721 10720 10719 10717 10716 10715 10716 10716 10716 10716 10717 10718 10720 10721 10722 10724 10725 10726 10727 10728 10728 10727 10723 10721 10722 10722 10722 10722 10723 10723 10723
10716 10716 10711 10708 10714 10721 10723 10715 10708 10710 10715 10718 10722 10725 10725 10725 10723 10720 10717 10716 10715 10716 10715 10715 10716 10715 10715 10713 10711 10713 10715 10715 10713 10712 10712 10710 10710 10710 10710 10711 10710 10711 10713 10715 10716 10716 10717 10719 10720 10722 10722 10723 10722 10719 10716 10716 10717 10717 10717 10718 10718 10718
10708 10704 10700 10702 10712 10719 10717 10707 10701 10706 10709 10710 10716 10719 10720 10719 10717 10714 10712 10711 10710 10710 10708 10709 10709 10707 10708 10708 10707 10707 10708 10708 10706 10705 10705 10705 10704 10704 10705 10705 10706 10706 10708 10709 10710 10710 10711 10712 10714 10716 10717 10717 10717 10715 10712 10711 10711 10712 10712 10713 10713 10712
10697 10693 10695 10700 10705 10710 10711 10704 10700 10702 10701 10703 10708 10711 10714 10714 10711 10709 10708 10705 10703 10704 10703 10702 10703 10700 10699 10699 10699 10700 10700 10699 10698 10697 10698 10698 10698 10699 10699 10700 10701 10702 10702 10703 10704 10705 10705 10706 10707 10709 10711 10711 10712 10711 10709 10707 10706 10707 10708 10708 10708 10707
10693 10691 10692 10694 10697 10701 10705 10704 10700 10697 10693 10696 10700 10702 10705 10707 10705 10704 10704 10700 10695 10697 10696 10695 10696 10695 10692 10690 10692 10694 10693 10691 10690 10690 10690 10691 10692 10693 10694 10695 10696 10697 10697 10698 10699 10699 10700 10700 10701 10703 10704 10705 10706 10706 10705 10703 10702 10702 10703 10702 10703 10702
10688 10688 10688 10688 10690 10693 10698 10700 10698 10694 10689 10689 10693 10695 10697 10699 10697 10697 10698 10695 10690 10690 10689 10688 10689 10688 10686 10684 10686 10688 10685 10684 10683 10683 10683 10685 10687 10688 10689 10690 10690 10691 10691 10692 10693 10694 10694 10695 10695 10696 10697 10699 10700 10701 10701 10700 10697 10698 10698 10698 10698 10698
10680 10680 10681 10682 10683 10684 10688 10693 10693 10692 10689 10687 10687 10688 10689 10689 10687 10687 10690 10689 10687 10685 10681 10680 10681 10681 10679 10678 10680 10680 10678 10676 10675 10676 10677 10679 10681 10683 10684 10684 10684 10685 10686 10687 10688 10689 10689 10690 10690 10690 10691 10692 10694 10695 10696 10695 10694 10693 10694 10693 10693 10694
10674 10673 10673 10675 10676 10676 10679 10683 10686 10686 10686 10684 10683 10683 10682 10681 10679 10679 10681 10683 10684 10680 10673 10672 10673 10672 10672 10671 10672 10672 10670 10668 10668 10669 10671 10672 10675 10676 10677 10678 10678 10679 10680 10681 10683 10684 10685 10686 10686 10686 10686 10686 10688 10690 10691 10691 10690 10690 10690 10689 10690 10690
10670 10669 10669 10670 10671 10671 10672 10675 10679 10679 10680 10678 10677 10677 10676 10675 10674 10673 10674 10675 10675 10672 10669 10668 10665 10663 10664 10664 10664 10665 10664 10662 10661 10662 10663 10665 10668 10670 10671 10671 10672 10674 10675 10676 10677 10679 10681 10682 10682 10682 10681 10681 10682 10685 10686 10686 10686 10686 10686 10686 10686 10687
10666 10666 10666 10666 10666 10666 10668 10670 10673 10674 10675 10673 10671 10671 10670 10670 10671 10669 10667 10667 10666 10665 10665 10662 10658 10656 10656 10656 10657 10658 10657 10656 10656 10657 10658 10659 10661 10664 10666 10667 10667 10669 10671 10672 10673 10675 10677 10678 10678 10677 10676 10676 10678 10680 10682 10682 10682 10682 10682 10683 10683 10683
10664 10664 10663 10663 10663 10664 10665 10666 10668 10669 10670 10670 10668 10667 10666 10665 10666 10665 10663 10662 10660 10659 10659 10657 10654 10653 10650 10649 10651 10651 10651 10650 10651 10652 10654 10655 10657 10659 10661 10662 10663 10665 10666 10668 10669 10670 10672 10673 10673 10672 10670 10672 10674 10676 10678 10678 10678 10678 10678 10679 10679 10680
10662 10661 10661 10661 10661 10662 10663 10663 10663 10664 10665 10666 10666 10664 10663 10662 10661 10661 10658 10657 10655 10654 10653 10652 10652 10649 10646 10644 10645 10645 10645 10645 10646 10647 10649 10650 10652 10654 10656 10658 10659 10660 10661 10662 10664 10665 10666 10667 10668 10667 10665 10667 10670 10671 10673 10674 10674 10674 10674 10675 10675 10676
10658 10658 10657 10657 10658 10659 10660 10659 10658 10658 10660 10661 10663 10662 10661 10659 10658 10657 10654 10652 10650 10648 10647 10647 10647 10644 10641 10641 10640 10640 10640 10640 10641 10642 10643 10645 10648 10650 10652 10653 10654 10655 10656 10657 10658 10659 10660 10661 10662 10661 10660 10662 10665 10667 10669 10670 10670 10670 10671 10671 10671 10672
10653 10653 10653 10653 10654 10655 10655 10655 10653 10653 10653 10655 10657 10658 10658 10657 10656 10654 10652 10648 10645 10643 10642 10641 10641 10638 10636 10634 10634 10635 10635 10635 10636 10637 10638 10639 10642 10645 10646 10648 10649 10649 10650 10651 10652 10653 10654 10656 10657 10655 10654 10657 10660 10662 10664 10665 10665 10666 10667 10668 10668 10668
10647 10648 10648 10648 10649 10650 10650 10650 10649 10647 10646 10647 10649 10651 10652 10652 10652 10652 10650 10647 10643 10641 10639 10638 10635 10633 10631 10628 10627 10628 10629 10629 10630 10631 10632 10632 10634 10637 10640 10642 10643 10644 10644 10645 10646 10647 10649 10651 10651 10650 10649 10651 10654 10656 10659 10660 10661 10662 10664 10664 10664 10664
10642 10642 10641 10641 10642 10643 10645 10646 10644 10642 10640 10640 10640 10642 10643 10644 10645 10646 10646 10644 10641 10638 10637 10635 10632 10628 10627 10624 10623 10623 10623 10623 10624 10625 10625 10625 10626 10629 10633 10636 10637 10638 10639 10639 10640 10642 10644 10646 10648 10646 10644 10646 10648 10650 10653 10656 10657 10658 10660 10661 10661 10661
10636 10635 10633 10633 10635 10637 10640 10641 10640 10638 10636 10634 10634 10634 10635 10636 10637 10638 10639 10639 10637 10634 10632 10631 10628 10625 10623 10621 10619 10618 10617 10617 10618 10619 10619 10620 10621 10623 10626 10629 10630 10631 10632 10634 10635 10637 10639 10642 10645 10643 10639 10640 10642 10644 10647 10650 10653 10655 10656 10657 10658 10659
10630 10629 10627 10627 10628 10629 10632 10634 10635 10634 10633 10631 10630 10629 10629 10629 10629 10630 10632 10632 10632 10630 10628 10626 10624 10621 10619 10617 10616 10615 10614 10613 10613 10614 10615 10616 10617 10619 10620 10622 10624 10625 10626 10628 10630 10632 10635 10636 10639 10639 10635 10634 10636 10639 10643 10646 10649 10651 10653 10653 10655 10655
10625 10624 10622 10622 10622 10622 10624 10627 10628 10628 10629 10628 10627 10626 10625 10624 10624 10624 10624 10626 10626 10625 10623 10622 10620 10618 10616 10614 10613 10612 10612 10611 10611 10612 10612 10613 10615 10615 10616 10617 10618 10619 10620 10622 10624 10626 10629 10630 10632 10634 10633 10631 10631 10634 10638 10641 10644 10647 10649 10650 10651 10652
10621 10620 10619 10619 10617 10616 10618 10621 10622 10622 10623 10623 10623 10623 10622 10621 10620 10619 10619 10619 10620 10620 10618 10617 10616 10615 10613 10612 10611 10610 10610 10609 10609 10609 10610 10611 10611 10612 10612 10613 10613 10614 10615 10616 10618 10621 10623 10625 10626 10629 10630 10629 10628 10629 10633 10636 10640 10643 10645 10646 10647 10648
10618 10617 10616 10616 10614 10612 10613 10615 10617 10617 10617 10617 10617 10617 10617 10617 10617 10616 10616 10615 10615 10615 10614 10613 10611 10611 10610 10609 10608 10607 10607 10607 10607 10607 10607 10607 10608 10608 10608 10609 10609 10610 10611 10612 10614 10616 10618 10619 10622 10624 10625 10626 10626 10626 10627 10631 10635 10638 10641 10642 10643 10645
10614 10613 10613 10613 10611 10609 10608 10610 10612 10613 10613 10612 10612 10612 10612 10612 10612 10612 10612 10612 10611 10611 10611 10610 10608 10608 10607 10606 10606 10605 10605 10605 10605 10605 10605 10605 10604 10604 10604 10605 10606 10606 10607 10608 10609 10611 10612 10614 10617 10619 10621 10622 10623 10623 10623 10627 10631 10633 10636 10638 10639 10641
10611 10610 10610 10610 10609 10607 10605 10605 10606 10608 10610 10609 10607 10608 10608 10608 10607 10607 10608 10609 10608 10608 10608 10607 10606 10605 10604 10604 10603 10602 10602 10602 10602 10602 10602 10602 10602 10602 10601 10602 10602 10603 10604 10604 10605 10606 10608 10609 10611 10614 10616 10617 10619 10620 10620 10622 10626 10629 10632 10634 10636 10638
10607 10606 10607 10607 10607 10605 10603 10601 10600 10601 10605 10605 10604 10604 10605 10605 10604 10604 10604 10605 10605 10605 10605 10604 10603 10602 10602 10601 10600 10599 10598 10598 10598 10598 10598 10598 10598 10598 10598 10599 10600 10600 10601 10601 10602 10603 10604 10605 10606 10608 10611 10613 10615 10616 10617 10619 10621 10624 10627 10630 10632 10634
10603 10604 10605 10605 10605 10604 10602 10598 10594 10592 10596 10600 10600 10599 10600 10600 10600 10600 10600 10601 10601 10602 10602 10601 10600 10599 10598 10598 10597 10596 10595 10595 10594 10595 10595 10595 10595 10595 10596 10596 10597 10597 10598 10598 10598 10599 10600 10601 10602 10604 10606 10608 10610 10612 10613 10615 10617 10619 10622 10625 10627 10629
10600 10600 10602 10602 10602 10601 10598 10595 10591 10586 10586 10592 10594 10594 10594 10594 10594 10594 10595 10596 10597 10597 10598 10598 10597 10596 10595 10595 10594 10593 10592 10592 10591 10591 10591 10592 10592 10592 10593 10593 10594 10595 10595 10595 10595 10596 10596 10597 10599 10600 10601 10603 10605 10607 10609 10611 10612 10615 10618 10620 10622 10624
10596 10596 10596 10597 10597 10596 10593 10590 10587 10581 10579 10583 10587 10587 10587 10588 10588 10588 10589 10590 10591 10592 10593 10593 10593 10592 10592 10591 10591 10590 10589 10589 10589 10588 10588 10589 10589 10589 10590 10590 10591 10591 10592 10592 10592 10592 10593 10594 10595 10596 10597 10599 10600 10602 10605 10606 10608 10610 10613 10615 10617 10619
10590 10590 10590 10592 10592 10590 10588 10585 10582 10577 10573 10576 10580 10581 10581 10583 10583 10583 10582 10583 10585 10586 10587 10587 10587 10587 10587 10587 10587 10586 10586 10586 10585 10585 10585 10585 10586 10586 10587 10587 10587 10588 10588 10588 10588 10589 10589 10590 10591 10592 10593 10594 10596 10598 10600 10602 10604 10606 10608 10610 10612 10614
10585 10584 10584 10587 10588 10585 10582 10579 10576 10573 10568 10568 10573 10575 10575 10577 10579 10578 10577 10577 10578 10580 10580 10581 10581 10581 10581 10582 10582 10582 10582 10582 10582 10582 10582 10582 10583 10583 10583 10583 10584 10584 10585 10585 10585 10585 10586 10586 10587 10588 10589 10590 10592 10593 10595 10597 10599 10601 10603 10605 10607 10608
10580 10578 10578 10582 10582 10577 10572 10569 10567 10567 10565 10563 10567 10570 10570 10571 10573 10574 10573 10572 10572 10573 10574 10574 10574 10575 10575 10576 10576 10577 10577 10577 10578 10578 10578 10579 10579 10579 10579 10579 10580 10580 10580 10581 10581 10581 10582 10582 10583 10584 10585 10586 10587 10589 10590 10592 10594 10596 10598 10600 10602 10603
10573 10572 10573 10576 10576 10569 10562 10559 10559 10561 10563 10561 10562 10563 10563 10564 10567 10568 10567 10566 10566 10567 10567 10568 10568 10569 10569 10570 10570 10571 10572 10572 10573 10573 10573 10574 10574 10575 10575 10575 10575 10575 10576 10576 10577 10577 10577 10578 10579 10580 10581 10582 10583 10584 10585 10587 10589 10591 10593 10595 10596 10598
10567 10569 10568 10568 10569 10563 10556 10554 10554 10555 10558 10559 10557 10557 10557 10558 10559 10561 10562 10561 10560 10561 10561 10562 10563 10563 10564 10564 10565 10566 10567 10567 10568 10568 10568 10569 10569 10570 10570 10570 10570 10571 10571 10572 10572 10573 10573 10573 10574 10575 10576 10577 10579 10580 10581 10582 10584 10585 10587 10589 10591 10592